DK1PR-6 Weather Reports


time (UTC)temp
C
wind
direction
speed
KPH
gust
KPH
rain 1hr
cm
rain 24hr
cm
rain mn
cm
humidity
%
barometer
mb
20191019143929 15 353 0.0 4.8 0.00 0.00 0.00 86 1006.8
20191019142830 15 353 0.0 0.0 0.00 0.00 0.00 85 1006.8
20191019141730 15 353 0.0 4.8 0.00 0.00 0.00 84 1006.8
20191019140630 15 35 0.0 0.0 0.00 0.00 0.00 84 1006.8
20191019135532 15 35 0.0 0.0 0.00 0.00 0.00 83 1006.8
20191019134431 15 1 4.8 6.4 0.00 0.00 0.00 82 1006.8
20191019133331 15 89 0.0 6.4 0.00 0.00 0.00 81 1006.8
20191019132231 15 10 6.4 9.7 0.00 0.00 0.00 78 1006.8
20191019131130 15 5 4.8 9.7 0.00 0.00 0.00 76 1006.8
20191019130029 15 330 6.4 12.9 0.00 0.00 0.00 75 1006.8
20191019124930 15 1 6.4 14.5 0.00 0.00 0.00 76 1006.8
20191019123830 15 96 3.2 14.5 0.00 0.00 0.00 75 1006.8
20191019122731 15 121 4.8 8.0 0.00 0.00 0.00 76 1006.8
20191019121631 15 93 8.0 17.7 0.00 0.00 0.00 76 1006.8
20191019120530 15 211 0.0 8.0 0.00 0.00 0.00 77 1006.8
20191019112130 15 227 4.8 9.7 0.00 0.00 0.00 78 1007.8
20191019111029 15 29 4.8 14.5 0.00 0.00 0.00 78 1007.8
20191019110842 15 323 8.0 14.5 0.00 0.00 0.00 78 1007.8
20191019105742 15 245 6.4 11.3 0.00 0.00 0.00 79 1007.8
20191019104642 15 172 6.4 8.0 0.00 0.00 0.00 80 1007.8
20191019103545 15 141 6.4 17.7 0.00 0.00 0.00 82 1007.8
20191019102441 15 47 4.8 12.9 0.00 0.00 0.00 83 1007.8
20191019101341 14 30 3.2 6.4 0.00 0.00 0.00 85 1007.8
20191019100240 14 77 6.4 14.5 0.00 0.00 0.00 85 1007.8
20191019095141 14 176 3.2 17.7 0.00 0.10 0.00 87 1007.8
20191019094153 14 249 4.8 17.7 0.00 0.10 0.00 87 1008.8
20191019094040 14 249 4.8 17.7 0.00 0.10 0.00 87 1008.8
20191019093022 13 39 6.4 12.9 0.00 0.10 0.00 88 1007.8
20191019092950 13 39 6.4 12.9 0.00 0.10 0.00 88 1007.8
20191019091850 13 5 3.2 9.7 0.00 0.10 0.00 88 1007.8
20191019090750 13 318 4.8 8.0 0.00 0.10 0.00 87 1007.8
20191019085651 13 284 6.4 12.9 0.00 0.10 0.00 87 1008.8
20191019084549 13 5 0.0 6.4 0.00 0.10 0.00 87 1008.8
20191019083452 13 274 0.0 6.4 0.00 0.10 0.00 87 1007.8
20191019081249 13 281 3.2 6.4 0.00 0.10 0.00 86 1007.8
20191019080151 13 287 3.2 9.7 0.00 0.10 0.00 85 1007.8
20191019075232 13 319 0.0 6.4 0.00 0.10 0.00 84 1007.8
20191019075050 13 319 0.0 6.4 0.00 0.10 0.00 84 1007.8
20191019072852 13 64 4.8 9.7 0.00 0.10 0.00 84 1008.8
20191019070651 12 257 6.4 12.9 0.00 0.10 0.00 84 1007.8
20191019064450 12 119 6.4 9.7 0.00 0.10 0.00 84 1007.8
20191019063351 12 294 6.4 9.7 0.00 0.10 0.00 84 1007.8
20191019062250 12 287 4.8 12.9 0.00 0.10 0.00 84 1007.8
20191019061153 12 325 8.0 12.9 0.00 0.10 0.00 84 1008.8
20191019060050 12 353 6.4 9.7 0.00 0.10 0.00 84 1008.8
20191019054950 12 6 6.4 12.9 0.00 0.10 0.00 84 1008.8
20191019053850 11 208 6.4 8.0 0.00 0.10 0.00 83 1008.8
20191019052749 11 360 6.4 8.0 0.00 0.10 0.00 82 1008.8
20191019051650 11 303 4.8 6.4 0.00 0.10 0.00 81 1008.8
20191019050551 11 353 0.0 4.8 0.00 0.10 0.00 80 1008.8
20191019045451 12 345 4.8 6.4 0.00 0.10 0.00 80 1008.8
20191019043251 12 360 3.2 9.7 0.00 0.10 0.00 80 1008.8
20191019041050 12 9 6.4 9.7 0.00 0.10 0.00 79 1008.8
20191019034849 12 35 6.4 9.7 0.00 0.10 0.00 79 1008.8
20191019033748 12 41 6.4 16.1 0.00 0.10 0.00 79 1008.8
20191019032649 12 14 12.9 12.9 0.00 0.10 0.00 79 1008.8
20191019031551 12 328 6.4 14.5 0.00 0.10 0.00 79 1008.8
20191019030451 12 9 8.0 12.9 0.00 0.10 0.00 79 1009.8
20191019024252 12 357 8.0 19.3 0.00 0.10 0.00 79 1009.8
20191019023151 12 1 8.0 12.9 0.00 0.10 0.00 79 1009.8
20191019020950 11 252 4.8 9.7 0.00 0.10 0.00 81 1009.8
20191019015849 11 230 8.0 12.9 0.00 0.10 0.00 82 1009.8
20191019014750 11 353 8.0 11.3 0.00 0.10 0.00 83 1009.8
20191019013650 11 326 9.7 17.7 0.00 0.10 0.00 84 1009.8
20191019012551 10 299 4.8 9.7 0.00 0.10 0.00 84 1009.8
20191019011449 10 17 6.4 9.7 0.00 0.10 0.00 85 1009.8
20191019010351 10 360 0.0 4.8 0.00 0.10 0.00 84 1009.8
20191019005250 10 8 4.8 9.7 0.00 0.10 0.00 84 1009.8
20191019004150 10 197 3.2 4.8 0.00 0.10 0.00 83 1010.8
20191019003052 10 349 0.0 0.0 0.00 0.10 0.00 82 1010.8
20191019001951 10 357 4.8 6.4 0.00 0.10 0.00 82 1010.8
20191019000851 9 6 3.2 6.4 0.00 0.10 0.00 81 1010.8
20191018235751 9 345 0.0 0.0 0.00 0.10 0.00 81 1010.8
20191018234652 10 345 0.0 0.0 0.00 0.10 0.00 80 1010.8
20191018233551 10 345 0.0 6.4 0.00 0.10 0.00 79 1010.8
20191018231351 10 341 0.0 4.8 0.00 0.10 0.00 77 1010.8
20191018230251 11 360 6.4 8.0 0.00 0.10 0.00 77 1010.8
20191018225151 11 322 4.8 6.4 0.00 0.10 0.00 76 1010.8
20191018224050 11 357 4.8 6.4 0.00 0.10 0.00 76 1010.8
20191018222951 11 12 4.8 8.0 0.00 0.10 0.00 76 1010.8
20191018221850 11 11 4.8 8.0 0.00 0.10 0.00 75 1010.8
20191018220751 11 13 4.8 9.7 0.00 0.10 0.00 75 1010.8
20191018215652 11 66 6.4 9.7 0.00 0.10 0.10 75 1010.8
20191018213452 11 360 8.0 11.3 0.00 0.10 0.10 75 1010.8
20191018210151 11 82 4.8 9.7 0.00 0.10 0.10 76 1010.8
20191018205051 11 21 6.4 9.7 0.00 0.10 0.10 76 1010.8
20191018202848 11 17 6.4 9.7 0.00 0.10 0.10 77 1010.8
20191018201751 11 325 6.4 12.9 0.00 0.10 0.10 78 1010.8
20191018200651 11 360 8.0 9.7 0.00 0.10 0.10 77 1010.8
20191018195551 11 340 6.4 8.0 0.00 0.10 0.10 77 1011.8
20191018194451 11 13 6.4 8.0 0.00 0.10 0.10 77 1011.8
20191018191150 11 357 6.4 9.7 0.00 0.10 0.10 76 1011.8
20191018190520 11 7 4.8 8.0 0.00 0.10 0.10 76 1011.8
20191018184319 11 267 6.4 9.7 0.00 0.10 0.10 75 1011.8
20191018181019 11 4 6.4 9.7 0.00 0.10 0.10 74 1011.8
20191018175920 11 1 0.0 9.7 0.00 0.10 0.10 73 1011.8
20191018174819 11 324 0.0 12.9 0.00 0.10 0.10 73 1011.8
20191018173717 11 344 0.0 0.0 0.00 0.10 0.10 71 1011.8
20191018172619 11 344 0.0 0.0 0.00 0.10 0.10 70 1011.8
20191018170419 11 353 4.8 6.4 0.00 0.10 0.10 67 1011.8
20191018163120 12 83 6.4 6.4 0.00 0.10 0.10 64 1010.8
20191018162018 12 17 6.4 9.7 0.00 0.10 0.10 63 1010.8
20191018155819 13 41 6.4 8.0 0.00 0.10 0.10 62 1010.8
20191018154720 13 343 4.8 9.7 0.00 0.10 0.10 61 1010.8
20191018153620 13 17 6.4 8.0 0.00 0.10 0.10 60 1010.8
20191018150319 13 353 9.7 16.1 0.00 0.10 0.10 62 1009.8
20191018145223 14 49 8.0 12.9 0.00 0.10 0.10 63 1009.8